User: anonymous   Login
Location: Unspecified
(0.0000°N, 0.0000°E)
Time: 01:47:44
(UTC+00:00)
Language:

Sunsat (SO-35) - Orbit

View from above orbital plane
View from above orbital plane
View from above satellite
View from above satellite

Ground track
Ground track

The orbit data is extracted from the following two-line orbital elements,

1 25636U 99008C   18054.49430004  .00000014  00000-0  11918-4 0  9999
2 25636  96.4479 248.9508 0144081 245.3023 113.3116 14.44643642  1056
Epoch (UTC): 23 February 2018 11:51:47
Eccentricity: 0.0144081
inclination: 96.4479°
perigee height: 640 km
apogee height: 846 km
right ascension of ascending node: 248.9508°
argument of perigee: 245.3023°
revolutions per day: 14.44643642
mean anomaly at epoch: 113.3116°
orbit number at epoch: 105

The dashed part of the orbit path shows where the satellite is in the earth's shadow,  

DLR